FREGAT DEB, 45635

Orbit data source: Space-Track

FREGAT DEB, 45635 is space debris in LEO originally from a launch on Mon, 18 Jul 2011 UTC launched from the Tyuratam Missile And Space Complex (TTMTR). Debris objects in space refer to the collection of defunct objects orbiting the Earth. Examples of debris include non-operational satellites, rocket bodies, and fragments generated from explosions, collisions, or faulty payload assembly.

Loading next visibility...
Identifier
45635, 2011-037AB
Orbit
LEO
Last TLE update
23 hours ago
Origin
Manufacturer
Lavochkin
Mission
Spacecraft
Bus & Motor
Unknown
Mass
Unknown
Launch date (UTC)
2011-07-18 (14 years ago)
Launch vehicle
Unknown
Launch site
Tyuratam Missile And Space Complex (TTMTR)
Object type
Payload
Rocket body
Debris
Shape & HBR
Unknown
Radar Cross Section
Small (<0.1 m²)

Expand to show TLE details & history

TLE from 23 hours ago
0 FREGAT DEB
1 45635U 11037AB  25181.31176867  .00039529  00000-0  71180-2 0  9998
2 45635  51.2701 158.8811 1082241 145.5885 222.0166 12.95581771214223
Epoch: 2025-06-30T07:28Z
TLE epoch observation values (Epoch: 2025-06-30T07:28:56.813Z)
Latitude
-0.00004°
Longitude
128.02096°
Altitude
1,931.518 km
Speed
6.627 km/s
True Right ascension
10h 35m 31s
True Declination
0° 00' 00"
Sunlit
Object was in daylight at epoch
Visualization orbit readout
Latitude
-2.6951°
Longitude
-53.06617°
Altitude
576.398 km
Speed
7.913 km/s
Apparent Right ascension
01h 20m 35s
Apparent Declination
-33° 44' 44"
Sunlit
Object is in full shadow
Visualization observer readout
Local Sidereal Time
18:11:54
Azimuth
108.676° ESE
Elevation
-33.007°
Doppler factor
1
Orbital elements
Apogee altitude
2,108.756 km
Perigee altitude
451.174 km
Semi-major axis
7,658.102 km
Eccentricity
0.10822
Inclination
51.2701°
RAAN
158.8811°
Arg. of periapsis
145.5885°
True anomaly
Unknown
Mean anomaly
222.0166°
Eccentric anomaly
Unknown
Mean motion
3.23863 °/min
Orbital period
111.16 mins
BSTAR
0.007118
Loading maneuver chart data...
Loading SW <> Apogee altitude chart data...
Loading historical data...
Loading historical data...
Loading historical data...
Loading historical data...
Loading historical data...
Loading historical data...
Loading historical data...

FREGAT DEB Visibility forecast

Observer location: undefined°, undefined°

Span
Click to sort rows by Start time (UTC) header in descending order
Start Az.
Max El. time (UTC)
Max El. Az.
Max El.
End time (UTC)
End Az.
6 mins2025-07-01 08:08:05.585Z300.594° NW2025-07-01 08:11:05.585Z228.699° WSW42.453°2025-07-01 08:14:05.585Z138.947° SSE
9 mins2025-07-01 22:28:05.585Z151.856° SSE2025-07-01 22:32:05.585Z128.208° SE15.337°2025-07-01 22:37:05.585Z93.671° ESE
15 mins2025-07-02 00:20:05.585Z210.221° SW2025-07-02 00:29:05.585Z130.713° SE40.134°2025-07-02 00:35:05.585Z62.573° ENE
13 mins2025-07-02 02:18:05.585Z257.909° W2025-07-02 02:25:05.585Z318.902° NNW37.914°2025-07-02 02:31:05.585Z46.802° ENE
7 mins2025-07-02 04:19:05.585Z307.063° NW2025-07-02 04:23:05.585Z357.69° N23.276°2025-07-02 04:26:05.585Z42.02° NE
6 mins2025-07-02 06:17:05.585Z324.186° NNW2025-07-02 06:20:05.585Z17.904° NNE27.735°2025-07-02 06:23:05.585Z79.224° E
|